GW5298 Weather Reports


time (UTC)temp
C
wind
direction
speed
KPH
gust
KPH
rain 1hr
cm
rain 24hr
cm
rain mn
cm
humidity
%
barometer
mb
20260506165415 13 344 3.2 4.8 0.00 0.00 0.00 67 965.0
20260506164922 13 341 3.2 3.2 0.00 0.00 0.00 63 965.0
20260506164415 13 342 3.2 4.8 0.00 0.00 0.00 65 965.0
20260506163916 13 347 6.4 9.7 0.00 0.00 0.00 68 965.0
20260506163416 15 343 1.6 4.8 0.00 0.00 0.00 67 965.0
20260506162915 13 345 4.8 4.8 0.00 0.00 0.00 66 965.0
20260506162421 13 343 4.8 4.8 0.00 0.00 0.00 68 966.0
20260506161916 14 344 4.8 4.8 0.00 0.00 0.00 64 966.0
20260506161415 15 339 1.6 3.2 0.00 0.00 0.00 59 965.0
20260506160915 13 341 1.6 3.2 0.00 0.00 0.00 63 965.0
20260506160415 12 347 6.4 9.7 0.00 0.00 0.00 70 965.0
20260506155915 13 352 8.0 9.7 0.00 0.00 0.00 70 965.0
20260506155415 14 347 6.4 8.0 0.00 0.00 0.00 65 965.0
20260506154915 14 333 1.6 1.6 0.00 0.00 0.00 61 965.0
20260506154415 13 333 1.6 1.6 0.00 0.00 0.00 63 965.0
20260506153428 13 337 3.2 3.2 0.00 0.00 0.00 62 965.0
20260506152916 14 332 0.0 0.0 0.00 0.00 0.00 54 966.0
20260506152416 14 333 0.0 0.0 0.00 0.00 0.00 57 965.0
20260506151916 13 333 0.0 1.6 0.00 0.00 0.00 60 966.0
20260506151415 13 333 1.6 3.2 0.00 0.00 0.00 59 965.0
20260506150915 12 329 0.0 0.0 0.00 0.00 0.00 60 965.0
20260506150416 12 329 0.0 1.6 0.00 0.00 0.00 59 966.0
20260506145923 12 329 0.0 3.2 0.00 0.00 0.00 58 966.0
20260506145415 12 329 1.6 1.6 0.00 0.00 0.00 58 966.0
20260506144916 13 329 0.0 3.2 0.00 0.00 0.00 59 966.0
20260506144415 12 329 3.2 3.2 0.00 0.00 0.00 61 966.0
20260506143915 12 329 1.6 1.6 0.00 0.00 0.00 61 966.0
20260506143415 12 330 1.6 3.2 0.00 0.00 0.00 60 966.0
20260506142916 12 330 0.0 1.6 0.00 0.00 0.00 61 965.0
20260506142416 12 331 1.6 3.2 0.00 0.00 0.00 58 966.0
20260506141917 12 329 0.0 1.6 0.00 0.00 0.00 58 966.0
20260506141415 11 328 0.0 3.2 0.00 0.00 0.00 59 966.0
20260506140916 11 330 0.0 1.6 0.00 0.00 0.00 62 966.0
20260506140417 8 328 0.0 1.6 0.00 0.00 0.00 69 966.0
20260506135916 8 328 0.0 1.6 0.00 0.00 0.00 71 966.0
20260506135415 8 328 0.0 1.6 0.00 0.00 0.00 71 966.0
20260506134915 8 328 0.0 1.6 0.00 0.00 0.00 71 966.0
20260506134417 8 328 0.0 1.6 0.00 0.00 0.00 68 966.0
20260506133917 8 328 0.0 1.6 0.00 0.00 0.00 69 966.0
20260506133416 7 328 0.0 1.6 0.00 0.00 0.00 73 966.0
20260506132916 7 328 0.0 0.0 0.00 0.00 0.00 76 966.0
20260506132416 7 328 0.0 0.0 0.00 0.00 0.00 75 966.0
20260506131915 7 328 0.0 0.0 0.00 0.00 0.00 75 966.0
20260506131415 7 328 0.0 0.0 0.00 0.00 0.00 72 965.0
20260506130916 7 328 0.0 0.0 0.00 0.00 0.00 73 965.0
20260506130416 7 328 0.0 0.0 0.00 0.00 0.00 73 965.0
20260506125916 7 328 0.0 0.0 0.00 0.00 0.00 73 966.0
20260506125423 7 328 0.0 0.0 0.00 0.00 0.00 71 965.0
20260506124916 7 328 0.0 1.6 0.00 0.00 0.00 73 965.0
20260506124415 7 327 0.0 1.6 0.00 0.00 0.00 73 966.0
20260506123915 7 328 0.0 0.0 0.00 0.00 0.00 76 965.0
20260506123415 7 328 0.0 1.6 0.00 0.00 0.00 76 965.0
20260506122916 7 328 0.0 0.0 0.00 0.00 0.00 74 965.0
20260506122416 7 328 0.0 1.6 0.00 0.00 0.00 73 965.0
20260506121915 7 328 0.0 1.6 0.00 0.00 0.00 76 965.0
20260506121416 7 328 0.0 1.6 0.00 0.00 0.00 73 965.0
20260506120916 7 328 0.0 0.0 0.00 0.00 0.00 74 965.0
20260506120416 7 328 0.0 0.0 0.00 0.00 0.00 73 965.0
20260506115915 7 328 0.0 1.6 0.00 0.00 0.00 73 965.0
20260506115416 7 328 0.0 0.0 0.00 0.00 0.00 73 965.0
20260506114915 7 328 0.0 0.0 0.00 0.00 0.00 72 965.0
20260506114415 7 327 0.0 1.6 0.00 0.00 0.00 73 965.0
20260506113916 7 327 1.6 1.6 0.00 0.00 0.00 75 965.0
20260506113415 8 328 0.0 1.6 0.00 0.00 0.00 71 965.0
20260506112915 7 328 0.0 0.0 0.00 0.00 0.00 72 965.0
20260506112415 7 327 0.0 1.6 0.00 0.00 0.00 74 965.0
20260506111916 7 328 0.0 0.0 0.00 0.00 0.00 73 965.0
20260506111416 7 327 0.0 1.6 0.00 0.00 0.00 75 965.0
20260506110916 8 328 1.6 3.2 0.00 0.00 0.00 74 965.0
20260506110415 7 328 0.0 0.0 0.00 0.00 0.00 73 965.0
20260506105915 7 328 0.0 0.0 0.00 0.00 0.00 75 965.0
20260506105416 7 328 0.0 0.0 0.00 0.00 0.00 73 965.0
20260506104915 7 328 0.0 0.0 0.00 0.00 0.00 76 965.0
20260506104416 7 328 0.0 1.6 0.00 0.00 0.00 75 965.0
20260506103916 8 328 0.0 0.0 0.00 0.00 0.00 72 965.0
20260506103415 8 328 0.0 0.0 0.00 0.00 0.00 68 965.0
20260506102915 9 328 0.0 1.6 0.00 0.00 0.00 66 965.0
20260506102416 9 328 0.0 0.0 0.00 0.00 0.00 66 965.0
20260506101916 10 328 0.0 1.6 0.00 0.00 0.00 65 965.0
20260506101416 10 328 0.0 1.6 0.00 0.00 0.00 66 965.0
20260506100915 9 328 0.0 0.0 0.00 0.00 0.00 66 965.0
20260506100416 9 328 0.0 1.6 0.00 0.00 0.00 66 965.0
20260506095915 9 328 0.0 1.6 0.00 0.00 0.00 66 965.0
20260506095415 9 328 0.0 0.0 0.00 0.00 0.00 67 965.0
20260506094915 8 328 0.0 1.6 0.00 0.00 0.00 68 964.0
20260506094415 8 328 0.0 0.0 0.00 0.00 0.00 70 965.0
20260506093916 9 328 0.0 1.6 0.00 0.00 0.00 69 965.0
20260506093415 9 328 0.0 0.0 0.00 0.00 0.00 67 965.0
20260506092916 9 327 1.6 1.6 0.00 0.00 0.00 65 965.0
20260506092416 9 327 1.6 1.6 0.00 0.00 0.00 67 965.0
20260506091915 8 328 0.0 1.6 0.00 0.00 0.00 69 965.0
20260506091415 8 328 0.0 0.0 0.00 0.00 0.00 71 965.0
20260506090915 8 328 0.0 0.0 0.00 0.00 0.00 71 964.0
20260506090415 10 328 0.0 0.0 0.00 0.00 0.00 66 965.0
20260506085915 9 328 0.0 1.6 0.00 0.00 0.00 69 965.0
20260506085415 8 328 0.0 1.6 0.00 0.00 0.00 73 965.0
20260506084915 8 328 1.6 1.6 0.00 0.00 0.00 73 964.0
20260506084415 8 328 1.6 1.6 0.00 0.00 0.00 72 964.0
20260506083915 9 328 0.0 0.0 0.00 0.00 0.00 69 964.0
20260506083415 9 328 0.0 1.6 0.00 0.00 0.00 67 964.0
20260506082915 9 328 0.0 1.6 0.00 0.00 0.00 68 964.0
20260506082415 8 328 0.0 0.0 0.00 0.00 0.00 70 964.0
20260506081915 9 328 0.0 1.6 0.00 0.00 0.00 71 964.0
20260506081415 8 328 0.0 1.6 0.00 0.00 0.00 71 964.0
20260506080915 8 329 0.0 0.0 0.00 0.00 0.00 72 964.0
20260506080415 9 328 1.6 1.6 0.00 0.00 0.00 70 964.0
20260506073415 8 328 0.0 1.6 0.00 0.00 0.00 74 964.0
20260506072915 8 328 0.0 0.0 0.00 0.00 0.00 71 964.0
20260506072415 9 328 0.0 0.0 0.00 0.00 0.00 72 964.0
20260506071915 9 328 0.0 0.0 0.00 0.00 0.00 74 964.0
20260506071415 9 328 0.0 0.0 0.00 0.00 0.00 72 964.0
20260506070915 9 328 0.0 0.0 0.00 0.00 0.00 71 964.0
20260506070416 9 328 0.0 0.0 0.00 0.00 0.00 69 964.0
20260506062415 10 329 0.0 1.6 0.00 0.00 0.00 69 964.0
20260506061916 10 329 0.0 1.6 0.00 0.00 0.00 69 964.0
20260506061415 10 330 0.0 0.0 0.00 0.00 0.00 69 964.0
20260506060915 11 329 0.0 1.6 0.00 0.00 0.00 67 964.0
20260506060416 11 329 0.0 0.0 0.00 0.00 0.00 66 964.0
20260506051415 11 330 0.0 1.6 0.00 0.00 0.00 66 963.0
20260506050915 11 330 0.0 1.6 0.00 0.00 0.00 67 963.0
20260506050415 11 330 0.0 1.6 0.00 0.00 0.00 66 963.0
20260506044915 12 330 0.0 0.0 0.00 0.00 0.00 61 963.0
20260506044416 12 330 0.0 0.0 0.00 0.00 0.00 63 963.0
20260506043915 13 330 0.0 1.6 0.00 0.00 0.00 60 963.0
20260506043415 13 329 0.0 1.6 0.00 0.00 0.00 58 963.0
20260506042915 13 329 0.0 0.0 0.00 0.00 0.00 58 963.0
20260506042415 13 329 0.0 1.6 0.00 0.00 0.00 57 963.0
20260506041917 13 329 0.0 0.0 0.00 0.00 0.00 58 963.0
20260506041415 13 328 0.0 1.6 0.00 0.00 0.00 58 963.0
20260506040917 13 328 0.0 1.6 0.00 0.00 0.00 58 963.0
20260506040415 13 329 0.0 0.0 0.00 0.00 0.00 62 963.0
20260506035915 14 329 1.6 3.2 0.00 0.00 0.00 60 963.0
20260506035416 13 328 0.0 1.6 0.00 0.00 0.00 57 962.0
20260506034916 13 330 0.0 0.0 0.00 0.00 0.00 57 962.0
20260506034415 13 328 0.0 0.0 0.00 0.00 0.00 61 962.0
20260506033916 14 328 0.0 1.6 0.00 0.00 0.00 61 962.0
20260506033416 14 328 0.0 1.6 0.00 0.00 0.00 58 962.0
20260506032916 15 328 0.0 0.0 0.00 0.00 0.00 58 963.0
20260506032416 15 327 0.0 1.6 0.00 0.00 0.00 59 963.0
20260506031915 15 328 0.0 0.0 0.00 0.00 0.00 59 962.0
20260506031415 15 328 0.0 0.0 0.00 0.00 0.00 54 962.0
20260506030915 15 328 0.0 0.0 0.00 0.00 0.00 54 962.0
20260506030415 16 328 0.0 0.0 0.00 0.00 0.00 53 962.0
20260506025915 16 328 0.0 0.0 0.00 0.00 0.00 53 962.0
20260506025415 16 328 0.0 0.0 0.00 0.00 0.00 50 962.0
20260506024915 17 328 0.0 0.0 0.00 0.00 0.00 47 962.0
20260506024419 17 328 0.0 0.0 0.00 0.00 0.00 48 962.0
20260506023915 17 328 0.0 0.0 0.00 0.00 0.00 46 962.0
20260506023416 17 328 0.0 0.0 0.00 0.00 0.00 46 962.0
20260506022916 17 328 0.0 0.0 0.00 0.00 0.00 47 962.0
20260506022415 17 328 0.0 0.0 0.00 0.00 0.00 47 962.0
20260506021917 17 328 0.0 0.0 0.00 0.00 0.00 47 962.0
20260506021415 18 328 0.0 0.0 0.00 0.00 0.00 45 962.0
20260506020915 18 329 0.0 0.0 0.00 0.00 0.00 45 962.0
20260506020415 18 329 0.0 0.0 0.00 0.00 0.00 43 962.0
20260506015916 18 329 0.0 0.0 0.00 0.00 0.00 45 962.0
20260506015415 18 329 0.0 0.0 0.00 0.00 0.00 42 962.0
20260506014916 18 329 0.0 0.0 0.00 0.00 0.00 44 962.0
20260506014415 19 329 0.0 0.0 0.00 0.00 0.00 45 962.0
20260506013916 20 329 0.0 1.6 0.00 0.00 0.00 42 962.0
20260506013415 20 329 1.6 1.6 0.00 0.00 0.00 40 962.0
20260506012915 20 328 0.0 1.6 0.00 0.00 0.00 37 962.0
20260506012417 21 328 1.6 1.6 0.00 0.00 0.00 37 962.0
20260506011915 21 334 1.6 1.6 0.00 0.00 0.00 31 962.0
20260506011415 21 329 0.0 3.2 0.00 0.00 0.00 35 962.0
20260506010916 20 331 0.0 0.0 0.00 0.00 0.00 33 963.0
20260506010416 20 329 0.0 0.0 0.00 0.00 0.00 41 962.0
20260506005915 20 334 0.0 3.2 0.00 0.00 0.00 43 963.0
20260506005415 20 343 4.8 4.8 0.00 0.00 0.00 40 962.0
20260506004915 21 334 0.0 3.2 0.00 0.00 0.00 44 963.0
20260506004415 20 336 3.2 4.8 0.00 0.00 0.00 52 962.0
20260506003915 23 340 0.0 3.2 0.00 0.00 0.00 30 962.0
20260506003415 24 338 1.6 4.8 0.00 0.00 0.00 26 962.0
20260506002917 24 350 6.4 8.0 0.00 0.00 0.00 27 962.0
20260506002415 24 340 4.8 8.0 0.00 0.00 0.00 26 963.0
20260506001916 25 332 0.0 4.8 0.00 0.00 0.00 29 963.0
20260506001415 24 332 3.2 8.0 0.00 0.00 0.00 24 963.0
20260506000915 24 334 3.2 8.0 0.00 0.00 0.00 25 963.0
20260506000416 23 353 9.7 12.9 0.00 0.00 0.00 25 962.0
20260505235916 23 346 3.2 4.8 0.00 0.00 0.00 29 962.0
20260505235415 23 347 4.8 8.0 0.00 0.00 0.00 26 963.0
20260505234915 23 357 8.0 11.3 0.00 0.00 0.00 31 963.0
20260505234415 23 326 3.2 9.7 0.00 0.00 0.00 33 963.0
20260505233915 25 352 4.8 11.3 0.00 0.00 0.00 24 963.0
20260505233415 24 347 3.2 9.7 0.00 0.00 0.00 24 963.0
20260505232918 23 353 8.0 11.3 0.00 0.00 0.00 28 963.0
20260505232416 24 70 11.3 16.1 0.00 0.00 0.00 25 963.0
20260505231916 24 337 6.4 12.9 0.00 0.00 0.00 27 963.0
20260505231416 24 351 6.4 11.3 0.00 0.00 0.00 29 963.0
20260505230915 23 352 6.4 11.3 0.00 0.00 0.00 28 963.0
20260505230415 23 334 8.0 11.3 0.00 0.00 0.00 25 964.0
20260505225915 23 346 4.8 11.3 0.00 0.00 0.00 31 964.0
20260505225416 23 337 3.2 9.7 0.00 0.00 0.00 26 964.0
20260505224915 22 348 4.8 8.0 0.00 0.00 0.00 32 964.0
20260505224415 22 342 4.8 8.0 0.00 0.00 0.00 36 964.0
20260505223915 22 349 8.0 11.3 0.00 0.00 0.00 35 964.0
20260505223415 21 343 6.4 9.7 0.00 0.00 0.00 35 964.0
20260505222915 23 349 6.4 11.3 0.00 0.00 0.00 31 964.0
20260505222415 23 337 3.2 8.0 0.00 0.00 0.00 41 964.0
20260505221916 22 349 6.4 9.7 0.00 0.00 0.00 32 964.0
20260505221416 22 346 6.4 9.7 0.00 0.00 0.00 34 964.0
20260505220916 22 341 4.8 9.7 0.00 0.00 0.00 38 964.0
20260505220415 22 345 8.0 11.3 0.00 0.00 0.00 31 964.0
20260505215915 21 348 6.4 9.7 0.00 0.00 0.00 35 964.0
20260505215417 21 343 6.4 8.0 0.00 0.00 0.00 40 965.0
20260505214915 20 345 4.8 9.7 0.00 0.00 0.00 38 965.0
20260505214416 20 344 3.2 4.8 0.00 0.00 0.00 39 964.0
20260505213915 20 339 4.8 8.0 0.00 0.00 0.00 37 964.0
20260505213415 21 352 8.0 9.7 0.00 0.00 0.00 32 965.0
20260505212915 20 346 6.4 8.0 0.00 0.00 0.00 34 965.0
20260505212415 20 343 4.8 4.8 0.00 0.00 0.00 37 965.0
20260505211915 21 348 4.8 4.8 0.00 0.00 0.00 41 965.0
20260505211415 22 346 6.4 9.7 0.00 0.00 0.00 30 965.0
20260505210916 22 342 4.8 9.7 0.00 0.00 0.00 33 965.0
20260505210415 22 345 4.8 9.7 0.00 0.00 0.00 26 965.0
20260505205916 22 350 8.0 9.7 0.00 0.00 0.00 30 965.0
20260505205416 21 347 6.4 11.3 0.00 0.00 0.00 33 965.0
20260505204916 21 347 8.0 9.7 0.00 0.00 0.00 33 965.0
20260505204415 20 352 8.0 9.7 0.00 0.00 0.00 34 965.0
20260505203915 21 345 8.0 11.3 0.00 0.00 0.00 35 965.0
20260505203415 21 349 8.0 11.3 0.00 0.00 0.00 33 965.0
20260505202915 21 346 6.4 11.3 0.00 0.00 0.00 31 966.0
20260505202415 20 342 4.8 8.0 0.00 0.00 0.00 40 966.0
20260505201917 21 343 4.8 9.7 0.00 0.00 0.00 35 966.0
20260505201416 21 343 6.4 9.7 0.00 0.00 0.00 35 965.0
20260505200915 20 347 6.4 9.7 0.00 0.00 0.00 38 966.0
20260505200415 20 346 6.4 8.0 0.00 0.00 0.00 40 966.0
20260505195915 20 340 4.8 4.8 0.00 0.00 0.00 38 966.0
20260505195415 20 337 4.8 8.0 0.00 0.00 0.00 37 966.0
20260505194916 19 335 1.6 3.2 0.00 0.00 0.00 42 966.0
20260505194416 20 335 1.6 3.2 0.00 0.00 0.00 39 966.0
20260505193917 19 340 4.8 4.8 0.00 0.00 0.00 36 966.0
20260505193415 18 336 3.2 3.2 0.00 0.00 0.00 42 966.0
20260505192915 19 336 3.2 4.8 0.00 0.00 0.00 39 967.0
20260505192416 18 337 4.8 4.8 0.00 0.00 0.00 38 966.0
20260505191915 19 337 3.2 4.8 0.00 0.00 0.00 38 966.0
20260505191415 18 338 4.8 4.8 0.00 0.00 0.00 40 966.0
20260505190915 17 335 1.6 3.2 0.00 0.00 0.00 49 967.0
20260505190415 17 338 4.8 4.8 0.00 0.00 0.00 46 967.0
20260505185916 17 340 4.8 8.0 0.00 0.00 0.00 41 967.0
20260505185416 17 335 3.2 4.8 0.00 0.00 0.00 43 967.0
20260505184915 17 337 4.8 8.0 0.00 0.00 0.00 43 967.0
20260505184415 17 338 3.2 4.8 0.00 0.00 0.00 43 967.0
20260505183915 17 336 3.2 4.8 0.00 0.00 0.00 42 967.0
20260505183415 17 340 4.8 4.8 0.00 0.00 0.00 43 967.0
20260505182915 16 337 3.2 4.8 0.00 0.00 0.00 45 967.0
20260505182416 16 337 4.8 4.8 0.00 0.00 0.00 47 967.0
20260505181915 16 338 3.2 4.8 0.00 0.00 0.00 47 967.0
20260505181415 16 338 4.8 8.0 0.00 0.00 0.00 50 968.0
20260505180917 16 338 3.2 4.8 0.00 0.00 0.00 50 967.0
20260505180415 15 337 4.8 4.8 0.00 0.00 0.00 52 967.0
20260505175916 15 337 1.6 3.2 0.00 0.00 0.00 60 967.0
20260505175415 15 337 3.2 4.8 0.00 0.00 0.00 61 968.0
20260505174915 15 343 4.8 4.8 0.00 0.00 0.00 60 968.0
20260505174415 16 339 4.8 4.8 0.00 0.00 0.00 58 968.0
20260505173915 15 335 1.6 3.2 0.00 0.00 0.00 57 968.0
20260505173415 16 335 3.2 3.2 0.00 0.00 0.00 58 968.0
20260505172916 16 336 1.6 3.2 0.00 0.00 0.00 55 968.0
20260505172416 15 336 1.6 3.2 0.00 0.00 0.00 57 967.0
20260505171916 15 339 4.8 4.8 0.00 0.00 0.00 59 968.0
20260505171416 15 342 4.8 4.8 0.00 0.00 0.00 57 968.0
20260505170916 15 339 3.2 8.0 0.00 0.00 0.00 60 968.0
20260505170415 15 337 3.2 4.8 0.00 0.00 0.00 58 968.0
20260505165915 15 336 4.8 8.0 0.00 0.00 0.00 58 968.0